Regional Weather Roundup
Issued by NWS Newport/Morehead, NC

Current Version | Previous Version | Graphics & Text | Print | Product List | Glossary Off
Versions: 1 2 3 4 5 6 7 8 9 10 11 12 13 14 15 16 17 18 19 20 21 22 23 24 25 26 27 28 29 30 31 32 33 34 35 36 37 38 39 40 41 42 43 44 45 46 47 48 49 50

000
ASUS42 KMHX 302213
RWRMHX
WEATHER ROUNDUP FOR EASTERN NORTH CAROLINA
NATIONAL WEATHER SERVICE NEWPORT/MOREHEAD CITY NC
600 PM EDT THU JUL 30 2015

NOTE: "FAIR" INDICATES FEW OR NO CLOUDS BELOW 12,000 FEET
WITH NO SIGNIFICANT WEATHER AND/OR OBSTRUCTIONS TO VISIBILITY

NCZ015>017-031-032-045>047-102-103-302300-
NORTH COAST

CITY           SKY/WX    TMP DP  RH WIND       PRES   REMARKS
EDENTON          N/A     89  76  64 S8        29.87S HX 100
ELIZABETH CITY MOSUNNY   87  77  72 S8        29.88S
KITTY HAWK     PTCLDY    88  75  65 S6        29.88S
MANTEO         PTSUNNY   86  77  75 S15       29.89F

$$

NCZ045>047-081-094-103-104-302300-
CENTRAL COAST

CITY           SKY/WX    TMP DP  RH WIND       PRES   REMARKS
FRISCO         SUNNY     85  74  69 S12       29.90F
SWANQUARTER      N/A     88 N/A N/A SE9G17    29.85S

$$

NCZ095-097-098-100-101-302300-
SOUTHERN COAST

CITY           SKY/WX    TMP DP  RH WIND       PRES   REMARKS
BEAUFORT       SUNNY     85  76  74 S10       29.89S
CEDAR ISLAND     N/A     88 N/A N/A SE12      29.91S
JACKSONVILLE   MOSUNNY   87  74  64 SE10      29.86F
PINEY ISLAND   CLEAR    N/A N/A N/A MISG      29.89S
WILMINGTON     SUNNY     88  74  63 SE8       29.86S


$$

NCZ011>013-027>030-043-044-078>080-089-090>093-098-302300-
COASTAL PLAIN

CITY           SKY/WX    TMP DP  RH WIND       PRES   REMARKS
AHOSKIE        MOSUNNY   90  72  56 SE5       29.86S
CLINTON        SUNNY     93  72  50 CALM      29.85F HX 101
ELIZABETHTOWN  SUNNY     94  67  41 CALM      29.85S
GOLDSBORO      NOT AVBL
GREENVILLE     LGT RAIN  91  75  59 S8        29.88S HX 102
HAVELOCK       MOSUNNY   87  75  67 S7        29.88F
KENANSVILLE    SUNNY    N/A N/A N/A CALM      29.86F
KINSTON        MOSUNNY   91  73  55 SE7       29.86F HX 100
NEW BERN       SUNNY     89  72  56 SE8       29.88S
RICHLANDS      MOSUNNY   90  72  55 S5        29.86F
ROCKY MOUNT    PTSUNNY   93  70  46 S7        29.85F
WASHINGTON     SUNNY     88  76  66 SE6       29.87S
WHITEVILLE     SUNNY     93  71  48 E5        29.84F HX 100

$$

AMZ130-135-150-152-154-156-158-170-250-252-270-ANZ085-086-088-633-658-670-302300-
MARINE OBSERVATIONS

STATION/POSITION TIME  TEMP    WIND        PRES    WAVE   SWELL
                       AIR SEA DIR/SP/G            HT/PER HT/PER
                 (UTC) (F)     (DEG/KT/KT) (MB)    (FT/S) (FT/S)
CHESAPEAKE LIGHT 2200   82     180/ 17/ 17 1011.8
64 E VA BEACH    2150   82 82  190/ 14/ 17 1012.1    3/ 5   2/ 8
DUCK             2100   86 67  180/ 12/ 15 1011.0
2 E DUCK         2111      74                N/A     2/ 9
OREGON INLET     2100   84 86  190/ 17/ 21 1012.4
13E OREGON INLT  2200      82                N/A     5/11   2/11
HATTERAS CG      2100   85 84  170/  9/ 12 1012.4
DIAMOND BUOY     2150   83 86  160/ 17/ 21 1012.3    4/ 7   2/10
CAPE LOOKOUT     2200   83     140/  9/ 10 1011.7
BEAUFORT LAB     2100   84 84  180/  9/ 11 1011.4
30 SE NEW RVR IN NOT AVBL
27 SE WRIGHTSVLE 2100   80 84  130/  8/ 10   N/A
5 SE WRIGHTSVLE  2108   83 84  110/  8/ 12 1011.0
225 S CAPE HAT   2150   82 81  190/ 23/ 27 1012.3   10/ 8
41 SE CHARLESTON 2150   84 85  190/  2/  2 1011.2    2/ 7   2/ 7

$$



USA.gov is the U.S. government's official web portal to all federal, state and local government web resources and services.